Simultaneous Nadir Overpasses (SNOs) Predictions

Prediction of SNOs between AQUA and METOP-A Satellite Orbit:

Table of predicted SNOs for the next 14.0 days since TLE Epoch: 5/18/2012
Index Date (AQUA) Time (AQUA) AQUA Lat,Lon Date (METOP-A) Time (METOP-A) METOP-A Lat,Lon Distance(km) Time Diff (sec)
1 05/21/2012 07:04:22 -73.80,-111.68 05/21/2012 07:03:39 -73.78,-111.77 3.06 43
2 05/21/2012 07:53:51 73.89, 55.75 05/21/2012 07:54:17 73.88, 55.79 2.11 26
3 05/24/2012 02:38:34 -73.84, -45.32 05/24/2012 02:38:01 -73.81, -45.30 3.27 33
4 05/24/2012 03:28:02 73.89, 122.21 05/24/2012 03:28:39 73.90, 122.24 1.54 37
5 05/26/2012 22:12:44 -73.81, 21.20 05/26/2012 22:12:23 -73.82, 21.14 2.41 21
6 05/26/2012 23:02:13 73.91,-171.39 05/26/2012 23:03:01 73.90,-171.33 2.05 48
7 05/29/2012 16:57:20 73.45, -79.21 05/29/2012 16:56:11 73.37, -80.82 51.92 69
8 05/29/2012 17:46:53 -73.81, 87.65 05/29/2012 17:46:44 -73.82, 87.55 3.20 9
9 05/29/2012 18:36:22 73.92,-104.95 05/29/2012 18:37:22 73.90,-104.94 2.41 60
10 06/01/2012 12:31:36 73.80, -13.51 06/01/2012 12:30:24 73.80, -13.41 3.00 72
11 06/01/2012 13:21:03 -73.85, 154.02 06/01/2012 13:21:05 -73.86, 154.05 1.63 2




NCC Satellite Simultaneous Nadir Overpasses (SNOs) Prediction Service
